Hourly Data Report for July 14, 2017

QUALICUM BEACH AIRPORT
BRITISH COLUMBIA

49°20'14.000" N
124°23'38.000" W
58.20 m
1026562
71766
VOQ

Download Data

Hourly Data (July 2017)
Hourly Data Report for July 14, 2017
TIME
LST
Temp Definition
°C
Dew Point Definition
°C
Rel Hum Definition
%
Precip. Amount Definition
mm

Wind Dir Definition
10's deg

Wind Spd Definition
km/h
Visibility Definition
km
Stn Press Definition
kPa
Hmdx Definition


Wind Chill Definition


Weather Definition


00:00 14.7 8.8 68 0.0 26 7   101.33     LegendNANA
01:00 13.8 8.8 71 0.0 25 6   101.36     LegendNANA
02:00 13.5 8.5 72 0.0 26 6   101.37     LegendNANA
03:00 13.2 8.5 73 0.0 27 4   101.38     LegendNANA
04:00 11.6 8.4 81 0.0 25 6   101.39     LegendNANA
05:00 12.4 8.4 77 0.0 26 7   101.41     LegendNANA
06:00 14.6 9.4 71 0.0 28 4   101.43     LegendNANA
07:00 16.5 9.8 64 0.0 29 6   101.44     LegendNANA
08:00 17.8 11.4 66 0.0 31 9   101.45     LegendNANA
09:00 18.3 11.7 65 0.0 36 7   101.43     LegendNANA
10:00 19.3 12.6 65 0.0 34 8   101.43     LegendNANA
11:00 19.4 11.8 62 0.0 36 7   101.41     LegendNANA
12:00 20.5 13.1 62 0.0 36 7   101.37     LegendNANA
13:00 21.6 11.9 54 0.0 6 6   101.32     LegendNANA
14:00 20.5 12.3 59 0.0 8 7   101.27     LegendNANA
15:00 22.0 11.5 51 0.0 8 10   101.22     LegendNANA
16:00 23.0 10.9 46 0.0 10 8   101.16 25   LegendNANA
17:00 22.8 10.9 47 0.0 8 8   101.08 25   LegendNANA
18:00 21.0 12.7 59 0.0 10 8   101.05     LegendNANA
19:00 21.0 12.0 56 0.0 11 6   101.03     LegendNANA
20:00 19.3 12.0 63 0.0 21 2   101.05     LegendNANA
21:00 17.3 11.9 71 0.0 25 1   101.09     LegendNANA
22:00 16.9 10.2 65 0.0 28 6   101.10     LegendNANA
23:00 16.9 7.8 55 0.0 27 6   101.12     LegendNANA

Notes on Data Quality.

Legend

  • E = Estimated
  • M = Missing
  • NA = Not Available*
  • [empty] = Indicates an unobserved value
Date modified: